Hourly Data Report for August 26, 2020

SVARTEVAEG
NUNAVUT
Current Station Operator: ECCC - MSC

81°09'39.000" N
91°48'59.060" W
72.00 m
2403833
71872
NSG

Download Data

Hourly Data (August 2020)
Hourly Data Report for August 26, 2020
TIME Temp Definition
°C
Dew Point Definition
°C
Rel Hum Definition
%
Wind Dir Definition
10's deg

Wind Spd Definition
km/h
Visibility Definition
km
Stn Press Definition
kPa
Hmdx Definition


Wind Chill Definition


Weather Definition


00:00 -4.9 -5.2 98 32 8   99.78   -8 LegendNANA
01:00 -5.0 -5.3 98 32 6   99.81   -8 LegendNANA
02:00 -4.2 -4.5 98 32 7   99.83   -7 LegendNANA
03:00 -3.4 -3.6 98 35 8   99.86   -7 LegendNANA
04:00 -3.0 -3.2 98 36 13   99.89   -8 LegendNANA
05:00 -2.6 -2.8 98 35 13   99.93   -7 LegendNANA
06:00 -2.9 -3.3 97 33 14   99.95   -8 LegendNANA
07:00 -2.6 -3.2 96 34 13   99.98   -7 LegendNANA
08:00 -2.4 -2.9 96 36 12   100.01   -7 LegendNANA
09:00 -2.1 -2.9 95 35 10   100.04   -6 LegendNANA
10:00 -1.9 -3.0 92 35 10   100.06   -6 LegendNANA
11:00 -1.8 -2.9 92 34 13   100.10   -6 LegendNANA
12:00 -2.1 -3.7 89 32 13   100.12   -7 LegendNANA
13:00 -1.8 -4.1 84 32 9   100.15   -5 LegendNANA
14:00 -2.0 -3.3 91 33 14   100.18   -7 LegendNANA
15:00 -2.5 -4.3 88 33 13   100.22   -7 LegendNANA
16:00 -3.4 -6.1 82 27 7   100.23   -6 LegendNANA
17:00 -5.6 -7.4 87 27 11   100.26   -10 LegendNANA
18:00 -5.6 -6.8 91 24 12   100.29   -11 LegendNANA
19:00 -6.3 -7.6 91 25 14   100.31   -12 LegendNANA
20:00 -5.4 -6.1 95 26 6   100.32   -8 LegendNANA
21:00 -4.7 -5.4 95 25 13   100.32   -10 LegendNANA
22:00 -4.4 -5.2 94 25 10   100.35   -9 LegendNANA
23:00 -5.0 -5.3 98 25 18   100.37   -11 LegendNANA

Notes on Data Quality.

Legend

  • E = Estimated
  • M = Missing
  • NA = Not Available*
  • [empty] = Indicates an unobserved value
Date modified: